Location: Camaret
(48.2753°N, 4.5961°W)
Time: 06:18:02
(UTC+00:00)

X-37B - Pass Details

Date: 23 January 2021
Orbit: 383 x 391 km, 45.0° (Epoch: 27 February)

Event Time Altitude Azimuth Distance (km) Brightness Sun altitude
Rises 19:20:58 0° 259° (W) 2,274 5.9 -22.6°
Reaches altitude 10° 19:23:05 10° 253° (WSW) 1,420 4.5 -22.9°
Enters shadow 19:25:10 33° 229° (SW) 681 2.2 -23.3°
